OpenBCM V1.08-5-g2f4a (Linux)

Packet Radio Mailbox

IZ3LSV

[San Dona' di P. JN]

 Login: GUEST





  
CX2SA  > KEPS     19.04.13 04:03l 416 Lines 10951 Bytes #999 (0) @ WW
BID : ORB13108.M
Read: GUEST
Subj: Orbital Elements  13108.MISC
Path: IZ3LSV<IR1UAW<IK1NHL<CX2SA
Sent: 130419/0256Z @:CX2SA.SAL.URY.SA #:5360 [Salto] FBB7.00e $:ORB13108.M
From: CX2SA@CX2SA.SAL.URY.SA
To  : KEPS@AMSAT


HR AMSAT ORBITAL ELEMENTS FOR MANNED AND MISCELLANEOUS SATELLITES
FROM WA5QGD FORT WORTH,TX April 18, 2013
BID: ORB13108.M
TO ALL RADIO AMATEURS BT

Satellite: HUBBLE
Catalog number: 20580
Epoch time:      13107.72940891
Element set:     219
Inclination:      028.4702 deg
RA of node:       309.1211 deg
Eccentricity:    0.0003456
Arg of perigee:   063.1635 deg
Mean anomaly:     029.3970 deg
Mean motion:   15.03482263 rev/day
Decay rate:      1.584e-05 rev/day^2
Epoch rev:            6058
Checksum:              270

Satellite: ISS
Catalog number: 25544
Epoch time:      13108.15562633
Element set:     630
Inclination:      051.6481 deg
RA of node:       046.2255 deg
Eccentricity:    0.0010597
Arg of perigee:   153.3089 deg
Mean anomaly:     352.6323 deg
Mean motion:   15.52345674 rev/day
Decay rate:      8.927e-05 rev/day^2
Epoch rev:           82538
Checksum:              299

Satellite: CO-58
Catalog number: 28895
Epoch time:      13107.54241172
Element set:     453
Inclination:      097.8781 deg
RA of node:       325.8072 deg
Eccentricity:    0.0016232
Arg of perigee:   272.3973 deg
Mean anomaly:     087.5370 deg
Mean motion:   14.61039082 rev/day
Decay rate:       4.90e-06 rev/day^2
Epoch rev:           39808
Checksum:              324

Satellite: FALCON
Catalog number: 30776
Epoch time:      13107.52715125
Element set:     593
Inclination:      035.4303 deg
RA of node:       214.3756 deg
Eccentricity:    0.0001519
Arg of perigee:   167.7222 deg
Mean anomaly:     258.8924 deg
Mean motion:   15.10122328 rev/day
Decay rate:      3.656e-05 rev/day^2
Epoch rev:           33624
Checksum:              278

Satellite: MAST
Catalog number: 31126
Epoch time:      13107.55768002
Element set:     731
Inclination:      097.8795 deg
RA of node:       106.9492 deg
Eccentricity:    0.0092246
Arg of perigee:   241.1917 deg
Mean anomaly:     266.7071 deg
Mean motion:   14.54508265 rev/day
Decay rate:       3.42e-06 rev/day^2
Epoch rev:           31850
Checksum:              297

Satellite: CAPE1
Catalog number: 31130
Epoch time:      13106.50059898
Element set:     740
Inclination:      097.8959 deg
RA of node:       102.2836 deg
Eccentricity:    0.0099379
Arg of perigee:   259.9411 deg
Mean anomaly:     099.0562 deg
Mean motion:   14.53404489 rev/day
Decay rate:       5.31e-06 rev/day^2
Epoch rev:           31781
Checksum:              323

Satellite: COMPASS
Catalog number: 32787
Epoch time:      13108.74374269
Element set:     599
Inclination:      097.7578 deg
RA of node:       168.8408 deg
Eccentricity:    0.0016155
Arg of perigee:   136.4125 deg
Mean anomaly:     338.1964 deg
Mean motion:   14.85232767 rev/day
Decay rate:       9.96e-06 rev/day^2
Epoch rev:           26914
Checksum:              357

Satellite: AAUSAT2
Catalog number: 32788
Epoch time:      13108.14778038
Element set:     585
Inclination:      097.7585 deg
RA of node:       168.8412 deg
Eccentricity:    0.0015664
Arg of perigee:   138.0893 deg
Mean anomaly:     248.3784 deg
Mean motion:   14.85665646 rev/day
Decay rate:      1.817e-05 rev/day^2
Epoch rev:           26909
Checksum:              362

Satellite: DO-64
Catalog number: 32789
Epoch time:      13108.76379323
Element set:     614
Inclination:      097.7735 deg
RA of node:       172.8758 deg
Eccentricity:    0.0015319
Arg of perigee:   130.7367 deg
Mean anomaly:     017.5374 deg
Mean motion:   14.88064289 rev/day
Decay rate:      2.183e-05 rev/day^2
Epoch rev:           26928
Checksum:              352

Satellite: CO-66
Catalog number: 32791
Epoch time:      13108.18720934
Element set:     582
Inclination:      097.7584 deg
RA of node:       167.7373 deg
Eccentricity:    0.0016558
Arg of perigee:   139.0742 deg
Mean anomaly:     254.5691 deg
Mean motion:   14.84421871 rev/day
Decay rate:       7.66e-06 rev/day^2
Epoch rev:           26897
Checksum:              354

Satellite: RS-30
Catalog number: 32953
Epoch time:      13108.49985085
Element set:     777
Inclination:      082.4976 deg
RA of node:       105.3086 deg
Eccentricity:    0.0019202
Arg of perigee:   007.6124 deg
Mean anomaly:     352.5241 deg
Mean motion:   12.43033098 rev/day
Decay rate:        1.0e-07 rev/day^2
Epoch rev:           22249
Checksum:              286

Satellite: METEOR-M
Catalog number: 35865
Epoch time:      13108.76408937
Element set:     377
Inclination:      098.6083 deg
RA of node:       162.6291 deg
Eccentricity:    0.0001571
Arg of perigee:   246.8504 deg
Mean anomaly:     113.2507 deg
Mean motion:   14.21883382 rev/day
Decay rate:       -8.0e-08 rev/day^2
Epoch rev:           18602
Checksum:              302

Satellite: RS-38
Catalog number: 35869
Epoch time:      13108.73710540
Element set:     349
Inclination:      098.6032 deg
RA of node:       162.5344 deg
Eccentricity:    0.0003756
Arg of perigee:   245.9821 deg
Mean anomaly:     114.0968 deg
Mean motion:   14.22121911 rev/day
Decay rate:        7.0e-07 rev/day^2
Epoch rev:           18604
Checksum:              293

Satellite: JUGNU
Catalog number: 37839
Epoch time:      13108.66161826
Element set:     369
Inclination:      019.9624 deg
RA of node:       307.4589 deg
Eccentricity:    0.0019089
Arg of perigee:   347.5534 deg
Mean anomaly:     076.2653 deg
Mean motion:   14.12142541 rev/day
Decay rate:       3.91e-06 rev/day^2
Epoch rev:            7847
Checksum:              324

Satellite: SRMSAT
Catalog number: 37841
Epoch time:      13105.96004434
Element set:     370
Inclination:      019.9730 deg
RA of node:       334.6506 deg
Eccentricity:    0.0011813
Arg of perigee:   272.7858 deg
Mean anomaly:     206.5652 deg
Mean motion:   14.10214500 rev/day
Decay rate:       3.80e-06 rev/day^2
Epoch rev:            7797
Checksum:              276

Satellite: RAX-2
Catalog number: 37853
Epoch time:      13108.08704682
Element set:     478
Inclination:      101.7181 deg
RA of node:       293.8964 deg
Eccentricity:    0.0237588
Arg of perigee:   199.6645 deg
Mean anomaly:     309.0989 deg
Mean motion:   14.82910908 rev/day
Decay rate:      5.337e-05 rev/day^2
Epoch rev:            7953
Checksum:              359

Satellite: AUBIESAT
Catalog number: 37854
Epoch time:      13106.04872914
Element set:     473
Inclination:      101.7212 deg
RA of node:       291.6561 deg
Eccentricity:    0.0237760
Arg of perigee:   204.3206 deg
Mean anomaly:     303.6771 deg
Mean motion:   14.83532309 rev/day
Decay rate:      6.227e-05 rev/day^2
Epoch rev:            7924
Checksum:              285

Satellite: HRBE
Catalog number: 37855
Epoch time:      13107.50222457
Element set:     471
Inclination:      101.7215 deg
RA of node:       293.5891 deg
Eccentricity:    0.0238600
Arg of perigee:   200.5292 deg
Mean anomaly:     194.4470 deg
Mean motion:   14.83252178 rev/day
Decay rate:      5.760e-05 rev/day^2
Epoch rev:            7945
Checksum:              293

Satellite: RS-39
Catalog number: 38051
Epoch time:      13108.69974774
Element set:     360
Inclination:      051.6342 deg
RA of node:       137.3245 deg
Eccentricity:    0.0013235
Arg of perigee:   049.6791 deg
Mean anomaly:     057.4414 deg
Mean motion:   15.30829414 rev/day
Decay rate:     1.3815e-04 rev/day^2
Epoch rev:            6866
Checksum:              314

Satellite: E-STAR
Catalog number: 38079
Epoch time:      13108.64499713
Element set:      50
Inclination:      069.4822 deg
RA of node:       324.8175 deg
Eccentricity:    0.0647396
Arg of perigee:   215.4302 deg
Mean anomaly:     140.2112 deg
Mean motion:   14.38845795 rev/day
Decay rate:     3.4439e-04 rev/day^2
Epoch rev:            6115
Checksum:              310

Satellite: GOLIAT
Catalog number: 38085
Epoch time:      13108.77847655
Element set:     978
Inclination:      069.4851 deg
RA of node:       326.2348 deg
Eccentricity:    0.0655185
Arg of perigee:   216.1504 deg
Mean anomaly:     139.3525 deg
Mean motion:   14.37126919 rev/day
Decay rate:     3.2588e-04 rev/day^2
Epoch rev:            6112
Checksum:              334

Satellite: HORYU-2
Catalog number: 38340
Epoch time:      13108.85167217
Element set:     466
Inclination:      098.2122 deg
RA of node:       056.0144 deg
Eccentricity:    0.0013816
Arg of perigee:   081.6779 deg
Mean anomaly:     278.5944 deg
Mean motion:   14.70778513 rev/day
Decay rate:      1.341e-05 rev/day^2
Epoch rev:            4939
Checksum:              312

Satellite: RS-40
Catalog number: 38736
Epoch time:      13108.66505011
Element set:     245
Inclination:      082.4793 deg
RA of node:       192.2266 deg
Eccentricity:    0.0022998
Arg of perigee:   097.4412 deg
Mean anomaly:     262.9280 deg
Mean motion:   12.42877321 rev/day
Decay rate:        1.0e-07 rev/day^2
Epoch rev:            3285
Checksum:              293

Satellite: PROITERES
Catalog number: 38756
Epoch time:      13108.99628269
Element set:     699
Inclination:      098.2560 deg
RA of node:       184.9468 deg
Eccentricity:    0.0011643
Arg of perigee:   298.5006 deg
Mean anomaly:     061.5038 deg
Mean motion:   14.74149579 rev/day
Decay rate:       6.90e-06 rev/day^2
Epoch rev:            3267
Checksum:              348

Satellite: RAIKO
Catalog number: 38852
Epoch time:      13107.93569444
Element set:     199
Inclination:      051.6409 deg
RA of node:       037.5319 deg
Eccentricity:    0.0015253
Arg of perigee:   137.9511 deg
Mean anomaly:     222.2659 deg
Mean motion:   15.67939828 rev/day
Decay rate:     6.4781e-04 rev/day^2
Epoch rev:            3038
Checksum:              330

Satellite: FITSAT 1
Catalog number: 38853
Epoch time:      13107.85867823
Element set:     200
Inclination:      051.6426 deg
RA of node:       035.5381 deg
Eccentricity:    0.0012650
Arg of perigee:   149.8273 deg
Mean anomaly:     210.3457 deg
Mean motion:   15.72709848 rev/day
Decay rate:     9.4773e-04 rev/day^2
Epoch rev:            3045
Checksum:              308

Satellite: TechEdSat
Catalog number: 38854
Epoch time:      13108.73343754
Element set:     243
Inclination:      051.6330 deg
RA of node:       024.0001 deg
Eccentricity:    0.0011318
Arg of perigee:   167.8053 deg
Mean anomaly:     192.3592 deg
Mean motion:   15.92638908 rev/day
Decay rate:    4.16188e-03 rev/day^2
Epoch rev:            3068
Checksum:              288

Satellite: F 1
Catalog number: 38855
Epoch time:      13108.62294588
Element set:     232
Inclination:      051.6360 deg
RA of node:       025.5120 deg
Eccentricity:    0.0010251
Arg of perigee:   158.4085 deg
Mean anomaly:     201.7432 deg
Mean motion:   15.89000935 rev/day
Decay rate:    3.26261e-03 rev/day^2
Epoch rev:            3055
Checksum:              268

Satellite: WeWish
Catalog number: 38856
Epoch time:      13069.98095549
Element set:     248
Inclination:      051.6166 deg
RA of node:       215.0521 deg
Eccentricity:    0.0008325
Arg of perigee:   316.0438 deg
Mean anomaly:     044.8765 deg
Mean motion:   16.41348316 rev/day
Decay rate:  1.6701328e-01 rev/day^2
Epoch rev:            2458
Checksum:              318



Read previous mail | Read next mail


 05.11.2025 08:52:19lGo back Go up